Home   Weather   Jalandhar   Past weeks

Flag for India Past Weather in Jalandhar, Punjab, India — Yesterday and Last 2 Weeks

90 °F


Feels Like: 89 °F
Forecast: 61 / 90 °F
Wind: 7 mph from Northwest

Location: Amritsar Airport

Current Time: Oct 23, 2016 at 3:22:59 PM

Latest Report: Oct 23, 2016 at 3:00 PM

Visibility: 2 mi

Pressure: 29.80 "Hg

Humidity: 36%

Dew Point: 59 °F

Location of JalandharLocation

Past Weather in Jalandhar — Graph


Jalandhar Temperature Yesterday

Maximum temperature yesterday: 90 °F (at 2:30 PM)
Minimum temperature yesterday: 61 °F (at 6:00 AM)
Average temperature yesterday: 74 °F

High & Low Weather Summary for the Past Weeks

High93 °F (Oct 12, 2:30 PM)100% (Oct 8, 10:00 PM)29.95 "Hg (Oct 8, 10:00 PM)
Low61 °F (Oct 22, 6:00 AM)23% (Oct 18, 3:30 PM)29.68 "Hg (Oct 9, 3:30 PM)
Average77 °F74%29.80 "Hg
* Reported Oct 8 1:30 PM — Oct 23 2:00 PM, Jalandhar, Weather by CustomWeather, © 2016

Note: Actual official high and low records may vary slightly from our data, if they occured in-between our weather recording intervals... More about our weather records


Jalandhar Weather History for the Previous 24 Hours

Scroll right to see more
Time TempWeatherWind HumidityBarometerVisibility
2:00 PM
Sun, Oct 23
90 °FClear.8 mph36%29.80 "Hg2 mi
1:30 PM88 °FClear.8 mph40%29.83 "Hg2 mi
1:00 PM86 °FHaze.9 mph43%29.83 "Hg2 mi
12:30 PM88 °FHaze.7 mph43%29.86 "Hg2 mi
12:00 PM84 °FHaze.7 mph51%29.86 "Hg2 mi
11:30 AM84 °FHaze.7 mph51%29.86 "Hg2 mi
11:00 AM81 °FHaze.6 mph66%29.89 "Hg2 mi
10:30 AM79 °FHaze.6 mph70%29.89 "Hg1 mi
10:00 AM77 °FFog.3 mph79%29.89 "Hg1 mi
9:30 AM75 °FFog.2 mph83%29.89 "Hg1 mi
9:00 AM72 °FFog.2 mph100%29.86 "Hg1 mi
8:30 AM70 °FFog.No wind100%29.86 "Hg1 mi
8:00 AM66 °FFog.No wind100%29.86 "Hg1 mi
7:30 AM64 °FFog.No wind100%29.86 "Hg1 mi
6:30 AM64 °FFog.No wind100%29.83 "Hg1 mi
6:00 AM64 °FFog.No wind100%29.83 "Hg1 mi
5:30 AM64 °FFog.No wind100%29.83 "Hg1 mi
5:00 AM64 °FFog.No wind100%29.83 "Hg1 mi
4:30 AM64 °FFog.No wind100%29.83 "Hg1 mi
4:00 AM64 °FFog.No wind100%29.83 "Hg1 mi
3:00 AM66 °FFog.No wind100%29.83 "Hg1 mi
2:30 AM66 °FFog.No wind100%29.83 "Hg1 mi
2:00 AM66 °FFog.No wind100%29.83 "Hg1 mi
1:30 AM68 °FFog.No wind100%29.83 "Hg1 mi
1:00 AM66 °FFog.No wind100%29.86 "Hg1 mi
12:30 AM68 °FFog.No wind100%29.86 "Hg1 mi
12:00 AM68 °FFog.No wind100%29.86 "Hg1 mi
11:30 PM
Sat, Oct 22
68 °FFog.No wind100%29.86 "Hg1 mi
11:00 PM68 °FFog.No wind100%29.86 "Hg1 mi
10:30 PM70 °FFog.No wind100%29.86 "Hg1 mi
10:00 PM70 °FFog.No wind100%29.86 "Hg1 mi
9:30 PM70 °FFog.No wind100%29.86 "Hg1 mi
9:00 PM72 °FFog.No wind100%29.86 "Hg1 mi
8:30 PM73 °FFog.No wind89%29.86 "Hg1 mi
7:30 PM73 °FFog.No wind89%29.83 "Hg1 mi
7:00 PM75 °FFog.No wind78%29.83 "Hg1 mi
6:30 PM77 °FHaze.No wind69%29.80 "Hg1 mi
6:00 PM79 °FHaze.No wind65%29.80 "Hg1 mi
5:30 PM82 °FHaze.No wind58%29.80 "Hg2 mi
5:00 PM84 °FClear.5 mph51%29.80 "Hg2 mi
4:30 PM86 °FClear.6 mph43%29.80 "Hg2 mi
4:00 PM88 °FClear.6 mph35%29.80 "Hg2 mi
3:30 PM88 °FClear.7 mph40%29.80 "Hg2 mi
3:00 PM90 °FClear.3 mph36%29.80 "Hg2 mi
Weather by CustomWeather, © 2016

See weather overviewHow to use our weather pages